Home   Weather   Halls Creek   Past weeks
Flag for Australia

Past Weather in Halls Creek, Western Australia, Australia — Yesterday and Last 2 Weeks

Now
84 °F

Warm.


Feels Like: 84 °F
Forecast: 90 / 74 °F
Wind: 7 mph from Southeast

Location: Halls Creek Airport

Current Time: May 20, 2019 at 8:58:51 pm

Latest Report: May 20, 2019 at 8:00 pm


Visibility: N/A

Pressure: 30.00 "Hg

Humidity: 44%

Dew Point: 59 °F

Location of Halls CreekLocation

Past Weather in Halls Creek — Graph

°F

Halls Creek Temperature Yesterday

Maximum temperature yesterday: 88 °F (at 2:00 pm)
Minimum temperature yesterday: 74 °F (at 6:00 am)
Average temperature yesterday: 81 °F

High & Low Weather Summary for the Past Weeks

 TemperatureHumidityPressure
High94 °F (May 17, 3:00 pm)77% (May 20, 6:00 am)30.19 "Hg (May 20, 6:00 am)
Low50 °F (May 7, 6:00 am)9% (May 7, 3:00 pm)29.82 "Hg (May 17, 3:00 pm)
Average74 °F32%29.98 "Hg
* Reported May 5 8:00 pm — May 20 8:00 pm, Halls Creek. Weather by CustomWeather, © 2019

Note: Actual official high and low records may vary slightly from our data, if they occured in-between our weather recording intervals... More about our weather records

Advertising

Halls Creek Weather History for the Previous 24 Hours

Scroll right to see more
 ConditionsComfort  
Time TempWeatherWind HumidityBarometerVisibility
8:00 pm
Mon, May 20
84 °FWarm.7 mph44%30.00 "HgN/A
6:00 pm87 °FOvercast.8 mph37%29.96 "HgN/A
5:00 pm88 °FHot.7 mph34%29.94 "HgN/A
3:00 pm91 °FHot.9 mph31%29.93 "HgN/A
2:00 pm91 °FHot.7 mph33%29.94 "HgN/A
12:00 pm88 °FScattered clouds.12 mph36%29.98 "HgN/A
11:00 am86 °FPleasantly warm.15 mph39%30.01 "HgN/A
9:00 am81 °FWarm.16 mph49%30.05 "HgN/A
8:00 am78 °FWarm.14 mph57%30.05 "HgN/A
6:00 am70 °FMild.6 mph77%30.02 "HgN/A
5:00 am71 °FMild.9 mph74%30.00 "HgN/A
3:00 am73 °FOvercast.3 mph68%29.98 "HgN/A
2:00 am72 °FMild.No wind67%29.98 "HgN/A
12:00 am76 °FPassing clouds.7 mph58%30.00 "HgN/A
11:00 pm
Sun, May 19
78 °FWarm.9 mph57%30.01 "HgN/A
9:00 pm79 °FWarm.7 mph55%30.02 "HgN/A
8:00 pm80 °FWarm.8 mph51%30.01 "HgN/A
Weather by CustomWeather, © 2019

See weather overview